Tracking 29892 objects as of 21-Nov-2024
HD Live streaming from Space Station
objects crossing your sky now

USA 238

Track USA 238 now!
10-day predictions
USA 238 is classified as:


NORAD ID: 38758
Int'l Code: 2012-048A
Perigee: 916.8 km
Apogee: 1,309.0 km
Inclination: 63.4 °
Period: 107.4 minutes
Semi major axis: 7483 km
RCS: Unknown
Launch date: September 13, 2012
Source: United States (US)
Launch site: AIR FORCE WESTERN TEST RANGE (AFWTR)
Your satellite tracking list
Your tracking list is empty




NASA's NSSDC Master Catalog

Two Line Element Set (TLE):
1 38758U 12048A   24324.80701612 0.00000000  00000-0  00000-0 0    09
2 38758  63.4308 234.1087 0262001 358.2571   1.7429 13.40951443    01
Source of the keplerian elements: McCants